| time (UTC) | temp C | wind direction | speed KPH | gust KPH | rain 1hr cm | rain 24hr cm | rain mn cm | humidity % | barometer mb |
| 20260510190053 | 30 | 195 | 8.0 | 11.3 | 0.00 | 0.00 | 0.00 | 28 | 1014.5 |
| 20260510185659 | 30 | 132 | 4.8 | 14.5 | 0.00 | 0.00 | 0.00 | 28 | 1014.6 |
| 20260510184850 | 30 | 135 | 9.7 | 11.3 | 0.00 | 0.00 | 0.00 | 28 | 1014.7 |
| 20260510184057 | 30 | 180 | 1.6 | 0.0 | 0.00 | 0.00 | 0.00 | 29 | 1014.7 |
| 20260510184055 | 30 | 180 | 1.6 | 9.7 | 0.00 | 0.00 | 0.00 | 29 | 1014.7 |
| 20260510183651 | 29 | 168 | 1.6 | 9.7 | 0.00 | 0.00 | 0.00 | 29 | 1014.8 |
| 20260510183244 | 29 | 126 | 4.8 | 8.0 | 0.00 | 0.00 | 0.00 | 29 | 1014.7 |
| 20260510181639 | 28 | 135 | 11.3 | 11.3 | 0.00 | 0.00 | 0.00 | 29 | 1014.7 |
| 20260510174830 | 26 | 135 | 8.0 | 9.7 | 0.00 | 0.00 | 0.00 | 31 | 1014.6 |
| 20260510173627 | 26 | 101 | 6.4 | 11.3 | 0.00 | 0.00 | 0.00 | 31 | 1014.6 |
| 20260510173225 | 26 | 130 | 8.0 | 9.7 | 0.00 | 0.00 | 0.00 | 32 | 1014.6 |
| 20260510172422 | 25 | 103 | 8.0 | 9.7 | 0.00 | 0.00 | 0.00 | 32 | 1014.7 |
| 20260510172021 | 26 | 135 | 6.4 | 11.3 | 0.00 | 0.00 | 0.00 | 33 | 1014.7 |
| 20260510171620 | 26 | 288 | 3.2 | 8.0 | 0.00 | 0.00 | 0.00 | 33 | 1014.7 |
| 20260510171219 | 25 | 150 | 4.8 | 11.3 | 0.00 | 0.00 | 0.00 | 34 | 1014.7 |
| 20260510170817 | 25 | 165 | 3.2 | 9.7 | 0.00 | 0.00 | 0.00 | 34 | 1014.7 |
| 20260510165613 | 25 | 42 | 0.0 | 11.3 | 0.00 | 0.00 | 0.00 | 35 | 1014.7 |
| 20260510165212 | 24 | 101 | 1.6 | 6.4 | 0.00 | 0.00 | 0.00 | 36 | 1014.7 |
| 20260510164811 | 23 | 119 | 1.6 | 9.7 | 0.00 | 0.00 | 0.00 | 37 | 1014.7 |
| 20260510164411 | 23 | 45 | 4.8 | 11.3 | 0.00 | 0.00 | 0.00 | 37 | 1014.6 |
| 20260510164008 | 24 | 99 | 6.4 | 6.4 | 0.00 | 0.00 | 0.00 | 38 | 1014.5 |
| 20260510163607 | 24 | 96 | 6.4 | 9.7 | 0.00 | 0.00 | 0.00 | 39 | 1014.7 |
| 20260510163206 | 25 | 93 | 0.0 | 4.8 | 0.00 | 0.00 | 0.00 | 40 | 1014.6 |
| 20260510162002 | 24 | 173 | 6.4 | 6.4 | 0.00 | 0.00 | 0.00 | 42 | 1014.6 |
| 20260510161600 | 24 | 45 | 1.6 | 4.8 | 0.00 | 0.00 | 0.00 | 43 | 1014.5 |
| 20260510161159 | 24 | 225 | 1.6 | 3.2 | 0.00 | 0.00 | 0.00 | 45 | 1014.5 |
| 20260510160758 | 23 | 227 | 0.0 | 3.2 | 0.00 | 0.00 | 0.00 | 46 | 1014.5 |
| 20260510155956 | 22 | 180 | 1.6 | 3.2 | 0.00 | 0.00 | 0.00 | 48 | 1014.5 |
| 20260510155554 | 22 | 217 | 1.6 | 1.6 | 0.00 | 0.00 | 0.00 | 49 | 1014.5 |
| 20260510155152 | 21 | 166 | 3.2 | 4.8 | 0.00 | 0.00 | 0.00 | 50 | 1014.5 |
| 20260510153548 | 18 | 241 | 0.0 | 4.8 | 0.00 | 0.00 | 0.00 | 54 | 1014.7 |
| 20260510153147 | 18 | 220 | 3.2 | 4.8 | 0.00 | 0.00 | 0.00 | 54 | 1014.7 |
| 20260510152745 | 18 | 274 | 3.2 | 3.2 | 0.00 | 0.00 | 0.00 | 54 | 1014.6 |
| 20260510151541 | 17 | 292 | 1.6 | 3.2 | 0.00 | 0.00 | 0.00 | 56 | 1014.6 |
| 20260510151145 | 16 | 200 | 1.6 | 3.2 | 0.00 | 0.00 | 0.00 | 56 | 1014.7 |
| 20260510150739 | 16 | 274 | 0.0 | 3.2 | 0.00 | 0.00 | 0.00 | 56 | 1014.7 |
| 20260510150337 | 16 | 270 | 0.0 | 4.8 | 0.00 | 0.00 | 0.00 | 57 | 1014.6 |
| 20260510145937 | 16 | 274 | 4.8 | 4.8 | 0.00 | 0.00 | 0.00 | 57 | 1014.6 |
| 20260510145136 | 16 | 182 | 0.0 | 4.8 | 0.00 | 0.00 | 0.00 | 57 | 1014.5 |
| 20260510144331 | 15 | 228 | 1.6 | 3.2 | 0.00 | 0.00 | 0.00 | 58 | 1014.5 |
| 20260510143929 | 15 | 186 | 0.0 | 1.6 | 0.00 | 0.00 | 0.00 | 57 | 1014.5 |
| 20260510143529 | 15 | 83 | 0.0 | 1.6 | 0.00 | 0.00 | 0.00 | 57 | 1014.4 |
| 20260510142325 | 15 | 15 | 1.6 | 4.8 | 0.00 | 0.00 | 0.00 | 57 | 1014.4 |
| 20260510141115 | 15 | 195 | 1.6 | 3.2 | 0.00 | 0.00 | 0.00 | 57 | 1014.3 |
| 20260510140712 | 15 | 222 | 1.6 | 3.2 | 0.00 | 0.00 | 0.00 | 57 | 1014.3 |
| 20260510140314 | 15 | 180 | 1.6 | 3.2 | 0.00 | 0.00 | 0.00 | 57 | 1014.3 |
| 20260510133502 | 14 | 279 | 1.6 | 1.6 | 0.00 | 0.00 | 0.00 | 58 | 1014.1 |
| 20260510132305 | 14 | 274 | 1.6 | 3.2 | 0.00 | 0.00 | 0.00 | 58 | 1014.1 |
| 20260510131858 | 14 | 274 | 1.6 | 3.2 | 0.00 | 0.00 | 0.00 | 58 | 1014.1 |
| 20260510131457 | 14 | 310 | 1.6 | 3.2 | 0.00 | 0.00 | 0.00 | 57 | 1014.0 |
| 20260510131056 | 14 | 315 | 0.0 | 3.2 | 0.00 | 0.00 | 0.00 | 57 | 1014.1 |
| 20260510130654 | 14 | 252 | 0.0 | 3.2 | 0.00 | 0.00 | 0.00 | 57 | 1014.1 |
| 20260510125853 | 14 | 292 | 0.0 | 1.6 | 0.00 | 0.00 | 0.00 | 57 | 1014.0 |
| 20260510123047 | 14 | 182 | 1.6 | 3.2 | 0.00 | 0.00 | 0.00 | 57 | 1014.0 |
| 20260510120234 | 14 | 232 | 0.0 | 1.6 | 0.00 | 0.00 | 0.00 | 57 | 1014.0 |
| 20260510115832 | 14 | 270 | 0.0 | 1.6 | 0.00 | 0.00 | 0.00 | 57 | 1014.0 |
| 20260510115037 | 14 | 182 | 0.0 | 4.8 | 0.00 | 0.00 | 0.00 | 57 | 1013.9 |
| 20260510114627 | 14 | 217 | 1.6 | 3.2 | 0.00 | 0.00 | 0.00 | 57 | 1014.0 |
| 20260510114227 | 14 | 42 | 0.0 | 1.6 | 0.00 | 0.00 | 0.00 | 57 | 1014.0 |
| 20260510113017 | 13 | 180 | 3.2 | 3.2 | 0.00 | 0.00 | 0.00 | 57 | 1014.0 |
| 20260510112615 | 13 | 168 | 3.2 | 4.8 | 0.00 | 0.00 | 0.00 | 57 | 1013.9 |
| 20260510112215 | 13 | 218 | 1.6 | 3.2 | 0.00 | 0.00 | 0.00 | 57 | 1014.0 |
| 20260510111411 | 13 | 135 | 3.2 | 6.4 | 0.00 | 0.00 | 0.00 | 57 | 1013.9 |
| 20260510110611 | 13 | 81 | 6.4 | 6.4 | 0.00 | 0.00 | 0.00 | 57 | 1013.8 |
| 20260510110609 | 13 | 81 | 6.4 | 6.4 | 0.00 | 0.00 | 0.00 | 57 | 1013.8 |
| 20260510110207 | 13 | 90 | 1.6 | 6.4 | 0.00 | 0.00 | 0.00 | 57 | 1013.9 |
| 20260510105405 | 13 | 126 | 6.4 | 6.4 | 0.00 | 0.00 | 0.00 | 57 | 1013.8 |
| 20260510105004 | 13 | 76 | 4.8 | 6.4 | 0.00 | 0.00 | 0.00 | 57 | 1013.9 |
| 20260510104602 | 13 | 126 | 4.8 | 4.8 | 0.00 | 0.00 | 0.00 | 57 | 1013.9 |
| 20260510104201 | 13 | 135 | 3.2 | 3.2 | 0.00 | 0.00 | 0.00 | 57 | 1013.9 |
| 20260510103759 | 13 | 184 | 1.6 | 1.6 | 0.00 | 0.00 | 0.00 | 57 | 1013.9 |
| 20260510102957 | 13 | 135 | 3.2 | 4.8 | 0.00 | 0.00 | 0.00 | 57 | 1013.9 |
| 20260510102556 | 13 | 112 | 3.2 | 4.8 | 0.00 | 0.00 | 0.00 | 57 | 1013.8 |
| 20260510102155 | 13 | 130 | 3.2 | 4.8 | 0.00 | 0.00 | 0.00 | 57 | 1013.7 |
| 20260510101353 | 13 | 144 | 1.6 | 4.8 | 0.00 | 0.00 | 0.00 | 57 | 1013.8 |
| 20260510095349 | 13 | 135 | 0.0 | 1.6 | 0.00 | 0.00 | 0.00 | 57 | 1013.9 |
| 20260510093740 | 13 | 126 | 6.4 | 8.0 | 0.00 | 0.00 | 0.00 | 58 | 1014.0 |
| 20260510092939 | 13 | 135 | 6.4 | 11.3 | 0.00 | 0.00 | 0.00 | 58 | 1013.9 |
| 20260510092538 | 13 | 141 | 6.4 | 9.7 | 0.00 | 0.00 | 0.00 | 58 | 1013.9 |
| 20260510092137 | 13 | 117 | 6.4 | 8.0 | 0.00 | 0.00 | 0.00 | 57 | 1013.9 |
| 20260510091736 | 13 | 135 | 4.8 | 6.4 | 0.00 | 0.00 | 0.00 | 57 | 1013.9 |
| 20260510091334 | 13 | 92 | 4.8 | 9.7 | 0.00 | 0.00 | 0.00 | 57 | 1013.9 |
| 20260510090530 | 13 | 135 | 4.8 | 6.4 | 0.00 | 0.00 | 0.00 | 57 | 1014.0 |
| 20260510090129 | 13 | 135 | 3.2 | 3.2 | 0.00 | 0.00 | 0.00 | 57 | 1013.9 |
| 20260510085727 | 13 | 101 | 3.2 | 4.8 | 0.00 | 0.00 | 0.00 | 56 | 1013.8 |
| 20260510084928 | 13 | 114 | 4.8 | 4.8 | 0.00 | 0.00 | 0.00 | 56 | 1013.8 |
| 20260510084524 | 13 | 105 | 3.2 | 3.2 | 0.00 | 0.00 | 0.00 | 56 | 1013.8 |
| 20260510084125 | 13 | 135 | 3.2 | 4.8 | 0.00 | 0.00 | 0.00 | 56 | 1013.8 |
| 20260510083320 | 13 | 135 | 4.8 | 6.4 | 0.00 | 0.00 | 0.00 | 56 | 1013.8 |
| 20260510083000 | 13 | 126 | 3.2 | 4.8 | 0.00 | 0.00 | 0.00 | 56 | 1013.8 |
| 20260510082918 | 13 | 126 | 3.2 | 4.8 | 0.00 | 0.00 | 0.00 | 56 | 1013.8 |
| 20260510082601 | 13 | 135 | 3.2 | 4.8 | 0.00 | 0.00 | 0.00 | 56 | 1013.8 |
| 20260510082522 | 13 | 135 | 3.2 | 4.8 | 0.00 | 0.00 | 0.00 | 56 | 1013.8 |
| 20260510082116 | 13 | 135 | 4.8 | 4.8 | 0.00 | 0.00 | 0.00 | 56 | 1013.9 |
| 20260510081715 | 13 | 135 | 3.2 | 4.8 | 0.00 | 0.00 | 0.00 | 56 | 1013.9 |
| 20260510081313 | 13 | 81 | 4.8 | 4.8 | 0.00 | 0.00 | 0.00 | 56 | 1013.9 |
| 20260510081012 | 13 | 135 | 1.6 | 3.2 | 0.00 | 0.00 | 0.00 | 56 | 1014.0 |
| 20260510080912 | 13 | 135 | 1.6 | 3.2 | 0.00 | 0.00 | 0.00 | 56 | 1014.0 |
| 20260510075709 | 14 | 135 | 3.2 | 4.8 | 0.00 | 0.00 | 0.00 | 55 | 1014.2 |
| 20260510075307 | 14 | 135 | 3.2 | 3.2 | 0.00 | 0.00 | 0.00 | 55 | 1014.1 |
| 20260510074905 | 14 | 135 | 1.6 | 3.2 | 0.00 | 0.00 | 0.00 | 55 | 1014.1 |
| 20260510074504 | 14 | 135 | 3.2 | 4.8 | 0.00 | 0.00 | 0.00 | 55 | 1014.1 |
| 20260510073301 | 14 | 135 | 3.2 | 4.8 | 0.00 | 0.00 | 0.00 | 55 | 1014.2 |
| 20260510072900 | 14 | 135 | 3.2 | 3.2 | 0.00 | 0.00 | 0.00 | 55 | 1014.3 |
| 20260510072458 | 14 | 135 | 1.6 | 3.2 | 0.00 | 0.00 | 0.00 | 55 | 1014.3 |
| 20260510072058 | 14 | 135 | 1.6 | 4.8 | 0.00 | 0.00 | 0.00 | 55 | 1014.4 |
| 20260510071655 | 14 | 121 | 3.2 | 4.8 | 0.00 | 0.00 | 0.00 | 55 | 1014.3 |
| 20260510070854 | 14 | 135 | 1.6 | 1.6 | 0.00 | 0.00 | 0.00 | 54 | 1014.3 |
| 20260510065248 | 14 | 135 | 3.2 | 4.8 | 0.00 | 0.00 | 0.00 | 54 | 1014.2 |
| 20260510064847 | 14 | 135 | 3.2 | 4.8 | 0.00 | 0.00 | 0.00 | 54 | 1014.3 |
| 20260510064445 | 14 | 135 | 3.2 | 3.2 | 0.00 | 0.00 | 0.00 | 54 | 1014.3 |
| 20260510064044 | 14 | 81 | 1.6 | 1.6 | 0.00 | 0.00 | 0.00 | 54 | 1014.3 |
| 20260510063235 | 14 | 135 | 1.6 | 1.6 | 0.00 | 0.00 | 0.00 | 54 | 1014.3 |
| 20260510060833 | 15 | 81 | 0.0 | 0.0 | 0.00 | 0.00 | 0.00 | 53 | 1014.3 |
| 20260510060431 | 15 | 42 | 0.0 | 1.6 | 0.00 | 0.00 | 0.00 | 53 | 1014.3 |
| 20260510060025 | 15 | 45 | 0.0 | 1.6 | 0.00 | 0.00 | 0.00 | 53 | 1014.3 |
| 20260510055624 | 15 | 135 | 1.6 | 3.2 | 0.00 | 0.00 | 0.00 | 53 | 1014.4 |
| 20260510055223 | 15 | 135 | 1.6 | 1.6 | 0.00 | 0.00 | 0.00 | 53 | 1014.3 |
| 20260510054822 | 15 | 135 | 0.0 | 0.0 | 0.00 | 0.00 | 0.00 | 52 | 1014.3 |
| 20260510054420 | 15 | 180 | 0.0 | 1.6 | 0.00 | 0.00 | 0.00 | 52 | 1014.3 |
| 20260510054021 | 15 | 180 | 1.6 | 1.6 | 0.00 | 0.00 | 0.00 | 52 | 1014.3 |
| 20260510053216 | 15 | 191 | 1.6 | 1.6 | 0.00 | 0.00 | 0.00 | 52 | 1014.3 |
| 20260510052817 | 15 | 182 | 0.0 | 1.6 | 0.00 | 0.00 | 0.00 | 52 | 1014.4 |
| 20260510052416 | 15 | 180 | 0.0 | 1.6 | 0.00 | 0.00 | 0.00 | 52 | 1014.4 |
| 20260510052413 | 15 | 180 | 0.0 | 1.6 | 0.00 | 0.00 | 0.00 | 52 | 1014.4 |
| 20260510052012 | 15 | 135 | 0.0 | 3.2 | 0.00 | 0.00 | 0.00 | 52 | 1014.4 |
| 20260510051611 | 15 | 186 | 0.0 | 1.6 | 0.00 | 0.00 | 0.00 | 51 | 1014.4 |
| 20260510051211 | 15 | 230 | 0.0 | 1.6 | 0.00 | 0.00 | 0.00 | 51 | 1014.5 |
| 20260510050810 | 15 | 135 | 1.6 | 1.6 | 0.00 | 0.00 | 0.00 | 51 | 1014.5 |
| 20260510050407 | 15 | 303 | 0.0 | 0.0 | 0.00 | 0.00 | 0.00 | 51 | 1014.4 |
| 20260510044804 | 16 | 78 | 1.6 | 4.8 | 0.00 | 0.00 | 0.00 | 50 | 1014.3 |
| 20260510044401 | 16 | 130 | 4.8 | 4.8 | 0.00 | 0.00 | 0.00 | 50 | 1014.2 |
| 20260510044001 | 16 | 135 | 3.2 | 4.8 | 0.00 | 0.00 | 0.00 | 50 | 1014.2 |
| 20260510043600 | 16 | 135 | 4.8 | 6.4 | 0.00 | 0.00 | 0.00 | 50 | 1014.3 |
| 20260510043204 | 16 | 135 | 4.8 | 8.0 | 0.00 | 0.00 | 0.00 | 49 | 1014.2 |
| 20260510042756 | 16 | 126 | 6.4 | 6.4 | 0.00 | 0.00 | 0.00 | 49 | 1014.2 |
| 20260510042354 | 16 | 123 | 6.4 | 11.3 | 0.00 | 0.00 | 0.00 | 49 | 1014.1 |
| 20260510041953 | 16 | 121 | 8.0 | 8.0 | 0.00 | 0.00 | 0.00 | 49 | 1014.2 |
| 20260510041554 | 16 | 123 | 4.8 | 6.4 | 0.00 | 0.00 | 0.00 | 48 | 1014.1 |
| 20260510041150 | 16 | 119 | 3.2 | 4.8 | 0.00 | 0.00 | 0.00 | 48 | 1014.0 |
| 20260510040749 | 16 | 128 | 6.4 | 6.4 | 0.00 | 0.00 | 0.00 | 48 | 1014.0 |
| 20260510035546 | 16 | 114 | 8.0 | 8.0 | 0.00 | 0.00 | 0.00 | 47 | 1013.8 |
| 20260510035144 | 16 | 112 | 4.8 | 6.4 | 0.00 | 0.00 | 0.00 | 46 | 1013.8 |
| 20260510034742 | 16 | 114 | 4.8 | 9.7 | 0.00 | 0.00 | 0.00 | 46 | 1013.8 |
| 20260510034341 | 16 | 128 | 8.0 | 9.7 | 0.00 | 0.00 | 0.00 | 46 | 1013.7 |
| 20260510033940 | 16 | 108 | 6.4 | 9.7 | 0.00 | 0.00 | 0.00 | 45 | 1013.7 |
| 20260510033539 | 17 | 105 | 8.0 | 9.7 | 0.00 | 0.00 | 0.00 | 45 | 1013.6 |
| 20260510032739 | 17 | 123 | 6.4 | 6.4 | 0.00 | 0.00 | 0.00 | 44 | 1013.5 |
| 20260510032335 | 17 | 112 | 3.2 | 8.0 | 0.00 | 0.00 | 0.00 | 44 | 1013.5 |
| 20260510031934 | 17 | 110 | 6.4 | 9.7 | 0.00 | 0.00 | 0.00 | 43 | 1013.4 |
| 20260510031532 | 17 | 110 | 6.4 | 8.0 | 0.00 | 0.00 | 0.00 | 43 | 1013.2 |
| 20260510031131 | 18 | 135 | 9.7 | 11.3 | 0.00 | 0.00 | 0.00 | 42 | 1013.2 |
| 20260510030731 | 18 | 135 | 8.0 | 14.5 | 0.00 | 0.00 | 0.00 | 41 | 1013.2 |
| 20260510030329 | 18 | 112 | 4.8 | 11.3 | 0.00 | 0.00 | 0.00 | 41 | 1013.1 |
| 20260510025927 | 18 | 123 | 9.7 | 11.3 | 0.00 | 0.00 | 0.00 | 40 | 1013.1 |
| 20260510025526 | 19 | 135 | 8.0 | 11.3 | 0.00 | 0.00 | 0.00 | 40 | 1013.0 |
| 20260510025126 | 19 | 135 | 8.0 | 9.7 | 0.00 | 0.00 | 0.00 | 39 | 1012.9 |
| 20260510024724 | 19 | 135 | 11.3 | 11.3 | 0.00 | 0.00 | 0.00 | 38 | 1012.8 |
| 20260510024322 | 19 | 110 | 9.7 | 11.3 | 0.00 | 0.00 | 0.00 | 38 | 1012.8 |
| 20260510023921 | 20 | 108 | 9.7 | 9.7 | 0.00 | 0.00 | 0.00 | 38 | 1012.8 |
| 20260510023524 | 20 | 128 | 9.7 | 11.3 | 0.00 | 0.00 | 0.00 | 37 | 1012.6 |
| 20260510023118 | 20 | 90 | 8.0 | 9.7 | 0.00 | 0.00 | 0.00 | 36 | 1012.7 |
| 20260510021916 | 21 | 126 | 11.3 | 14.5 | 0.00 | 0.00 | 0.00 | 34 | 1012.5 |
| 20260510021111 | 21 | 94 | 11.3 | 16.1 | 0.00 | 0.00 | 0.00 | 33 | 1012.4 |
| 20260510020710 | 22 | 99 | 22.5 | 27.4 | 0.00 | 0.00 | 0.00 | 33 | 1012.3 |
| 20260510020312 | 22 | 112 | 6.4 | 19.3 | 0.00 | 0.00 | 0.00 | 32 | 1012.3 |
| 20260510015508 | 22 | 112 | 12.9 | 20.9 | 0.00 | 0.00 | 0.00 | 32 | 1012.2 |
| 20260510015106 | 23 | 108 | 11.3 | 20.9 | 0.00 | 0.00 | 0.00 | 31 | 1012.3 |
| 20260510014704 | 23 | 135 | 9.7 | 20.9 | 0.00 | 0.00 | 0.00 | 31 | 1012.3 |
| 20260510014303 | 23 | 135 | 12.9 | 14.5 | 0.00 | 0.00 | 0.00 | 30 | 1012.3 |
| 20260510013903 | 24 | 135 | 12.9 | 14.5 | 0.00 | 0.00 | 0.00 | 30 | 1012.2 |
| 20260510013059 | 24 | 139 | 12.9 | 19.3 | 0.00 | 0.00 | 0.00 | 30 | 1012.2 |
| 20260510012659 | 24 | 135 | 14.5 | 30.6 | 0.00 | 0.00 | 0.00 | 29 | 1012.1 |
| 20260510012256 | 25 | 135 | 11.3 | 19.3 | 0.00 | 0.00 | 0.00 | 29 | 1012.1 |
| 20260510011855 | 25 | 135 | 12.9 | 22.5 | 0.00 | 0.00 | 0.00 | 29 | 1012.2 |
| 20260510011454 | 25 | 139 | 8.0 | 12.9 | 0.00 | 0.00 | 0.00 | 29 | 1012.1 |
| 20260510011053 | 26 | 135 | 9.7 | 20.9 | 0.00 | 0.00 | 0.00 | 28 | 1012.1 |
| 20260510010652 | 26 | 135 | 20.9 | 20.9 | 0.00 | 0.00 | 0.00 | 28 | 1012.0 |
| 20260510004645 | 27 | 130 | 11.3 | 14.5 | 0.00 | 0.00 | 0.00 | 27 | 1012.0 |
| 20260510003845 | 27 | 121 | 9.7 | 14.5 | 0.00 | 0.00 | 0.00 | 27 | 1012.0 |
| 20260510003441 | 27 | 108 | 11.3 | 12.9 | 0.00 | 0.00 | 0.00 | 26 | 1012.1 |
| 20260510003039 | 28 | 135 | 14.5 | 16.1 | 0.00 | 0.00 | 0.00 | 26 | 1012.1 |
| 20260510002641 | 28 | 144 | 9.7 | 12.9 | 0.00 | 0.00 | 0.00 | 26 | 1012.1 |
| 20260510002237 | 28 | 147 | 9.7 | 12.9 | 0.00 | 0.00 | 0.00 | 25 | 1012.1 |
| 20260510001839 | 29 | 148 | 11.3 | 14.5 | 0.00 | 0.00 | 0.00 | 26 | 1012.0 |
| 20260510001435 | 29 | 135 | 14.5 | 17.7 | 0.00 | 0.00 | 0.00 | 25 | 1012.0 |
| 20260510001033 | 29 | 135 | 11.3 | 14.5 | 0.00 | 0.00 | 0.00 | 25 | 1012.0 |
| 20260510000233 | 29 | 139 | 6.4 | 16.1 | 0.00 | 0.00 | 0.00 | 25 | 1012.2 |
| 20260509235829 | 30 | 139 | 14.5 | 17.7 | 0.00 | 0.00 | 0.00 | 25 | 1012.1 |
| 20260509235430 | 30 | 135 | 17.7 | 17.7 | 0.00 | 0.00 | 0.00 | 25 | 1012.1 |
| 20260509234626 | 30 | 171 | 3.2 | 14.5 | 0.00 | 0.00 | 0.00 | 25 | 1012.1 |
| 20260509234225 | 30 | 153 | 14.5 | 20.9 | 0.00 | 0.00 | 0.00 | 24 | 1012.1 |
| 20260509233824 | 29 | 180 | 6.4 | 16.1 | 0.00 | 0.00 | 0.00 | 25 | 1012.1 |
| 20260509233422 | 29 | 135 | 12.9 | 25.7 | 0.00 | 0.00 | 0.00 | 25 | 1012.2 |
| 20260509233021 | 30 | 123 | 11.3 | 20.9 | 0.00 | 0.00 | 0.00 | 24 | 1012.1 |
| 20260509232619 | 29 | 99 | 9.7 | 24.1 | 0.00 | 0.00 | 0.00 | 24 | 1012.3 |
| 20260509231416 | 30 | 135 | 14.5 | 24.1 | 0.00 | 0.00 | 0.00 | 25 | 1012.3 |
| 20260509225412 | 32 | 177 | 9.7 | 11.3 | 0.00 | 0.00 | 0.00 | 25 | 1012.4 |
| 20260509225008 | 31 | 180 | 4.8 | 12.9 | 0.00 | 0.00 | 0.00 | 25 | 1012.4 |
| 20260509224212 | 30 | 135 | 9.7 | 14.5 | 0.00 | 0.00 | 0.00 | 25 | 1012.5 |
| 20260509222159 | 29 | 112 | 14.5 | 16.1 | 0.00 | 0.00 | 0.00 | 25 | 1012.7 |
| 20260509221400 | 30 | 139 | 16.1 | 17.7 | 0.00 | 0.00 | 0.00 | 25 | 1012.8 |
| 20260509220553 | 30 | 146 | 14.5 | 16.1 | 0.00 | 0.00 | 0.00 | 25 | 1012.9 |
| 20260509220152 | 30 | 184 | 8.0 | 14.5 | 0.00 | 0.00 | 0.00 | 25 | 1013.0 |
| 20260509215752 | 29 | 173 | 6.4 | 25.7 | 0.00 | 0.00 | 0.00 | 25 | 1013.0 |
| 20260509214948 | 29 | 135 | 9.7 | 25.7 | 0.00 | 0.00 | 0.00 | 25 | 1013.1 |
| 20260509213746 | 29 | 135 | 12.9 | 16.1 | 0.00 | 0.00 | 0.00 | 26 | 1013.2 |
| 20260509213348 | 30 | 135 | 14.5 | 16.1 | 0.00 | 0.00 | 0.00 | 26 | 1013.3 |
| 20260509212554 | 31 | 138 | 4.8 | 17.7 | 0.00 | 0.00 | 0.00 | 26 | 1013.3 |
| 20260509210953 | 30 | 137 | 12.9 | 14.5 | 0.00 | 0.00 | 0.00 | 27 | 1013.5 |
| 20260509210539 | 30 | 135 | 11.3 | 17.7 | 0.00 | 0.00 | 0.00 | 26 | 1013.5 |
| 20260509210141 | 30 | 135 | 8.0 | 17.7 | 0.00 | 0.00 | 0.00 | 27 | 1013.6 |
| 20260509205731 | 30 | 215 | 3.2 | 14.5 | 0.00 | 0.00 | 0.00 | 27 | 1013.6 |
| 20260509204528 | 30 | 139 | 9.7 | 16.1 | 0.00 | 0.00 | 0.00 | 27 | 1013.8 |
| 20260509204127 | 30 | 162 | 1.6 | 11.3 | 0.00 | 0.00 | 0.00 | 27 | 1013.8 |
| 20260509203725 | 29 | 130 | 3.2 | 14.5 | 0.00 | 0.00 | 0.00 | 27 | 1013.8 |
| 20260509202521 | 29 | 112 | 16.1 | 17.7 | 0.00 | 0.00 | 0.00 | 27 | 1013.7 |
| 20260509202120 | 29 | 130 | 9.7 | 17.7 | 0.00 | 0.00 | 0.00 | 27 | 1013.9 |
| 20260509201724 | 29 | 128 | 12.9 | 12.9 | 0.00 | 0.00 | 0.00 | 27 | 1013.9 |
| 20260509201722 | 29 | 128 | 12.9 | 12.9 | 0.00 | 0.00 | 0.00 | 27 | 1013.9 |
| 20260509201319 | 29 | 94 | 6.4 | 19.3 | 0.00 | 0.00 | 0.00 | 27 | 1013.9 |
| 20260509200917 | 31 | 119 | 8.0 | 12.9 | 0.00 | 0.00 | 0.00 | 27 | 1013.9 |
| 20260509200514 | 30 | 180 | 4.8 | 14.5 | 0.00 | 0.00 | 0.00 | 27 | 1013.9 |
| 20260509195712 | 29 | 28 | 3.2 | 14.5 | 0.00 | 0.00 | 0.00 | 28 | 1013.9 |
| 20260509195311 | 30 | 90 | 8.0 | 12.9 | 0.00 | 0.00 | 0.00 | 28 | 1013.9 |
| 20260509194910 | 29 | 76 | 6.4 | 14.5 | 0.00 | 0.00 | 0.00 | 28 | 1013.9 |
| 20260509194509 | 30 | 108 | 4.8 | 8.0 | 0.00 | 0.00 | 0.00 | 28 | 1014.0 |
| 20260509194108 | 30 | 83 | 4.8 | 14.5 | 0.00 | 0.00 | 0.00 | 28 | 1013.9 |
| 20260509193305 | 32 | 132 | 9.7 | 9.7 | 0.00 | 0.00 | 0.00 | 28 | 1014.2 |
| 20260509192908 | 31 | 153 | 4.8 | 9.7 | 0.00 | 0.00 | 0.00 | 28 | 1014.2 |
| 20260509192502 | 31 | 180 | 1.6 | 6.4 | 0.00 | 0.00 | 0.00 | 28 | 1014.2 |
| 20260509192100 | 30 | 119 | 3.2 | 8.0 | 0.00 | 0.00 | 0.00 | 29 | 1014.2 |
| 20260509191700 | 30 | 130 | 6.4 | 16.1 | 0.00 | 0.00 | 0.00 | 29 | 1014.2 |
| 20260509191258 | 30 | 182 | 11.3 | 12.9 | 0.00 | 0.00 | 0.00 | 29 | 1014.2 |
| 20260509190457 | 30 | 135 | 6.4 | 9.7 | 0.00 | 0.00 | 0.00 | 29 | 1014.2 |